Cardak, Turkey

2:16 PM +03 on May 23, 2018 (GMT +0300)
Cardak Air Base

Weather History for LTAY - February, 2018

Change the Weather History Date:

Wednesday, February 14, 2018

  Actual Average Record
Temperature  
Mean Temperature 40 °F -  
Max Temperature 46 °F - - ()
Min Temperature 33 °F - - ()
Degree Days  
Heating Degree Days 26    
Moisture  
Dew Point 33 °F    
Average Humidity 73    
Maximum Humidity 100    
Minimum Humidity 57    
Precipitation  
Precipitation 0.00 in - - ()
Sea Level Pressure  
Sea Level Pressure 29.98 in    
Wind  
Wind Speed 5 mph ()    
Max Wind Speed 15 mph    
Max Gust Speed -    
Visibility 6.0 miles    
Events Rain    
T = Trace of Precipitation, MM = Missing Value Source: Averaged Metar Reports

Daily Weather History Graph

Daily Weather History Graph

Search for Another Location

Airport or City:

Astronomy

Feb. 14, 2018 Rise Set
Actual Time 7:52 AM +03 6:38 PM +03
Civil Twilight 7:25 AM +03 7:05 PM +03
Nautical Twilight 6:54 AM +03 7:36 PM +03
Astronomical Twilight 6:24 AM +03 8:07 PM +03
Moon 6:57 AM +03 (2/14) 5:23 PM +03 (2/14)
Length of Visible Light 11h 40m
Length of Day
10h 46m
Waning Crescent, 2% of the Moon is Illuminated
Feb 14
Waning Crescent
Feb 16
New
Feb 23
First Quarter
Mar 2
Full
Mar 9
Last Quarter

Hourly Weather History & Observations

Time (+03) Temp. Windchill Dew Point Humidity Pressure Visibility Wind Dir Wind Speed Gust Speed Precip Events Conditions
12:50 AM 35.6 °F 30.7 °F 26.6 °F 70% 30.01 in - East 5.8 mph - N/A   Clear
1:50 AM 33.8 °F 29.6 °F 26.6 °F 75% 30.01 in - ENE 4.6 mph - N/A   Clear
2:50 AM 39.2 °F - 26.6 °F 61% 29.98 in - Variable 2.3 mph - N/A   Clear
3:50 AM 37.4 °F - 26.6 °F 65% 29.98 in - Calm Calm - N/A   Clear
4:50 AM 37.4 °F - 24.8 °F 60% 29.98 in - Variable 1.2 mph - N/A   Clear
5:50 AM 33.8 °F 28.6 °F 28.4 °F 81% 29.98 in - ENE 5.8 mph - N/A   Clear
6:50 AM 35.6 °F - 26.6 °F 70% 29.98 in - Variable 1.2 mph - N/A   Clear
7:50 AM 37.4 °F 30.3 °F 28.4 °F 70% 29.95 in - ESE 10.4 mph - N/A   Clear
8:50 AM 39.2 °F 33.6 °F 28.4 °F 65% 29.95 in 6.2 mi SE 8.1 mph - N/A   Mostly Cloudy
9:50 AM 42.8 °F 35.8 °F 30.2 °F 61% 29.95 in 6.2 mi SSE 13.8 mph - N/A   Mostly Cloudy
11:50 AM 46.4 °F 40.1 °F 32.0 °F 57% 29.95 in 6.2 mi SSE 15.0 mph - N/A   Mostly Cloudy
12:18 PM 46.4 °F 41.9 °F 35.6 °F 66% 29.95 in 5.0 mi SW 9.2 mph - N/A Rain Light Rain Showers
12:50 PM 42.8 °F 37.5 °F 39.2 °F 87% 29.95 in 5.0 mi West 9.2 mph - N/A Rain Light Rain Showers
1:50 PM 37.4 °F 28.5 °F 37.4 °F 100% 29.98 in 5.0 mi West 15.0 mph - N/A Rain Light Rain Showers
2:10 PM 39.2 °F 32.5 °F 39.2 °F 100% 29.98 in 6.2 mi WNW 10.4 mph - N/A   Mostly Cloudy
2:50 PM 44.6 °F 42.2 °F 37.4 °F 76% 29.98 in 6.2 mi SSW 4.6 mph - N/A   Mostly Cloudy
3:50 PM 44.6 °F - 37.4 °F 76% 29.98 in 6.2 mi Variable 1.2 mph - N/A   Mostly Cloudy
4:48 PM 46.4 °F 42.4 °F 37.4 °F 71% 29.98 in 6.2 mi WSW 8.1 mph - N/A Rain Light Rain Showers
4:50 PM 46.4 °F 41.9 °F 37.4 °F 71% 29.98 in 6.2 mi WSW 9.2 mph - N/A Rain Light Rain Showers
5:14 PM 44.6 °F 41.4 °F 39.2 °F 81% 29.98 in 6.2 mi SW 5.8 mph - N/A   Mostly Cloudy
5:50 PM 46.4 °F 42.4 °F 37.4 °F 71% 29.98 in 6.2 mi SW 8.1 mph - N/A   Mostly Cloudy
6:50 PM 42.8 °F 41.1 °F 37.4 °F 81% 30.01 in 6.2 mi South 3.5 mph - N/A   Mostly Cloudy
7:50 PM 42.8 °F - 35.6 °F 76% 30.01 in 6.2 mi Variable 2.3 mph - N/A   Scattered Clouds
8:50 PM 42.8 °F 41.1 °F 33.8 °F 70% 30.01 in 6.2 mi West 3.5 mph - N/A   Scattered Clouds
9:50 PM 41.0 °F 35.8 °F 33.8 °F 76% 30.04 in 6.2 mi SW 8.1 mph - N/A   Scattered Clouds
11:50 PM 42.8 °F - 33.8 °F 70% 30.04 in 6.2 mi Calm Calm - N/A   Scattered Clouds